Volver al catálogo

CZ-6A DEB

ActivoPO
NORAD 61821·DEBRIS·🇨🇳 China

Lanzado Aug 6, 2024 desde Taiyuan Satellite Launch Center

Loading…

Próximos Pases (próximas 24 horas)

TLE

ActualizadoSource: Space-Track

Época: Sep 14, 2026, 06:54 UTC

1 61821U 24140ACM 26257.28814803  .00005580  00000-0  53730-3 0  9994
2 61821  89.0447 261.0563 0114585 193.9640 165.8413 14.87917380107410

Sigue CZ-6A DEB en tiempo real con AllMySat

Download on the App Store